"Period start","avg(HW err(1)/warn(2) (#))","avg(Visibility (m))","avg(Weather code (#))","avg(Precip intensity (mm/h))","min(HW err(1)/warn(2) (#))","max(HW err(1)/warn(2) (#))","std(HW err(1)/warn(2) (#))","med(HW err(1)/warn(2) (#))","min(Visibility (m))","max(Visibility (m))","std(Visibility (m))","med(Visibility (m))","min(Weather code (#))","max(Weather code (#))","std(Weather code (#))","med(Weather code (#))","min(Precip intensity (mm/h))","max(Precip intensity (mm/h))","std(Precip intensity (mm/h))","med(Precip intensity (mm/h))"
2017-08-02 00:00:00,2,39967,0,0.00,0,2,1,2,24786,50000,6663,40502,0,0,0,0,0.00,0.00,0.00,0.00
2017-08-02 00:10:00,2,35851,0,0.00,2,2,0,2,25959,45983,5762,34584,0,0,0,0,0.00,0.00,0.00,0.00
2017-08-02 00:20:00,2,42557,0,0.00,2,2,0,2,30323,50000,6939,45392,0,0,0,0,0.00,0.00,0.00,0.00
2017-08-02 00:30:00,2,40997,0,0.00,2,2,0,2,22865,50000,8546,43595,0,0,0,0,0.00,0.00,0.00,0.00
2017-08-02 00:40:00,2,41070,0,0.00,0,2,1,2,31596,50000,6834,41880,0,0,0,0,0.00,0.00,0.00,0.00
2017-08-02 00:50:00,2,42072,0,0.00,0,2,1,2,28616,50000,8590,45580,0,0,0,0,0.00,0.00,0.00,0.00
2017-08-02 01:00:00,2,39154,0,0.00,0,2,1,2,27333,50000,7427,38191,0,0,0,0,0.00,0.00,0.00,0.00
2017-08-02 01:10:00,1,42374,0,0.00,0,2,1,2,28627,50000,7000,42574,0,0,0,0,0.00,0.00,0.00,0.00
2017-08-02 01:20:00,1,43548,0,0.00,0,2,1,1,32128,50000,6120,46143,0,0,0,0,0.00,0.00,0.00,0.00
2017-08-02 01:30:00,2,41005,0,0.00,0,2,1,2,31013,50000,7081,41527,0,0,0,0,0.00,0.00,0.00,0.00
2017-08-02 01:40:00,0,37232,0,0.00,0,0,0,0,24903,50000,7669,36864,0,0,0,0,0.00,0.00,0.00,0.00
2017-08-02 01:50:00,0,40718,0,0.00,0,0,0,0,26713,47940,6196,42082,0,0,0,0,0.00,0.00,0.00,0.00
2017-08-02 02:00:00,0,40080,0,0.00,0,0,0,0,24741,50000,8593,41981,0,0,0,0,0.00,0.00,0.00,0.00
2017-08-02 02:10:00,1,36830,0,0.00,0,2,1,0,25408,48887,5970,36295,0,0,0,0,0.00,0.00,0.00,0.00
2017-08-02 02:20:00,0,40060,0,0.00,0,0,0,0,21978,50000,9322,41980,0,0,0,0,0.00,0.00,0.00,0.00
2017-08-02 02:30:00,0,39691,0,0.00,0,0,0,0,29799,50000,7725,36636,0,0,0,0,0.00,0.00,0.00,0.00
2017-08-02 02:40:00,0,46778,0,0.00,0,0,0,0,36533,50000,4537,50000,0,0,0,0,0.00,0.00,0.00,0.00
2017-08-02 02:50:00,0,41255,0,0.00,0,0,0,0,27001,50000,7265,43232,0,0,0,0,0.00,0.00,0.00,0.00
2017-08-02 03:00:00,0,42528,0,0.00,0,0,0,0,31786,50000,5090,42685,0,0,0,0,0.00,0.00,0.00,0.00
2017-08-02 03:10:00,0,40635,0,0.00,0,0,0,0,31991,47886,5141,40666,0,0,0,0,0.00,0.00,0.00,0.00
2017-08-02 03:20:00,0,43880,0,0.00,0,0,0,0,32606,50000,5661,45958,0,0,0,0,0.00,0.00,0.00,0.00
2017-08-02 03:30:00,0,45853,0,0.00,0,0,0,0,38753,50000,4321,47177,0,0,0,0,0.00,0.00,0.00,0.00
2017-08-02 03:40:00,0,45068,0,0.00,0,0,0,0,35084,50000,4712,46184,0,0,0,0,0.00,0.00,0.00,0.00
2017-08-02 03:50:00,0,44825,0,0.00,0,0,0,0,36757,50000,4701,45858,0,0,0,0,0.00,0.00,0.00,0.00
2017-08-02 04:00:00,0,49695,0,0.00,0,0,0,0,48309,50000,615,50000,0,0,0,0,0.00,0.00,0.00,0.00
2017-08-02 04:10:00,0,48424,0,0.00,0,0,0,0,40440,50000,2803,49743,0,0,0,0,0.00,0.00,0.00,0.00
2017-08-02 04:20:00,0,48135,0,0.00,0,0,0,0,38285,50000,3526,49737,0,0,0,0,0.00,0.00,0.00,0.00
2017-08-02 04:30:00,0,48696,0,0.00,0,0,0,0,43240,50000,2233,50000,0,0,0,0,0.00,0.00,0.00,0.00
2017-08-02 04:40:00,0,48003,0,0.00,0,0,0,0,40433,50000,3061,49452,0,0,0,0,0.00,0.00,0.00,0.00
2017-08-02 04:50:00,0,48032,0,0.00,0,0,0,0,41879,50000,3160,50000,0,0,0,0,0.00,0.00,0.00,0.00
2017-08-02 05:00:00,0,48964,0,0.00,0,0,0,0,43617,50000,1900,50000,0,0,0,0,0.00,0.00,0.00,0.00
2017-08-02 05:10:00,0,49370,0,0.00,0,0,0,0,46818,50000,1101,50000,0,0,0,0,0.00,0.00,0.00,0.00
2017-08-02 05:20:00,0,44103,0,0.00,0,0,0,0,30091,50000,6242,45956,0,0,0,0,0.00,0.00,0.00,0.00
2017-08-02 05:30:00,0,38827,0,0.00,0,0,0,0,28860,50000,7833,38552,0,0,0,0,0.00,0.00,0.00,0.00
2017-08-02 05:40:00,0,42741,0,0.00,0,0,0,0,35873,50000,4036,42022,0,0,0,0,0.00,0.00,0.00,0.00
2017-08-02 05:50:00,0,37743,0,0.00,0,0,0,0,27818,48856,6239,37918,0,0,0,0,0.00,0.00,0.00,0.00
2017-08-02 06:00:00,0,44065,0,0.00,0,0,0,0,37963,50000,3852,44400,0,0,0,0,0.00,0.00,0.00,0.00
2017-08-02 06:10:00,0,43119,0,0.00,0,0,0,0,32684,50000,6549,45692,0,0,0,0,0.00,0.00,0.00,0.00
2017-08-02 06:20:00,0,48334,0,0.00,0,0,0,0,45845,50000,1744,49016,0,0,0,0,0.00,0.00,0.00,0.00
2017-08-02 06:30:00,0,48917,0,0.00,0,0,0,0,45617,50000,1469,49984,0,0,0,0,0.00,0.00,0.00,0.00
2017-08-02 06:40:00,0,47697,0,0.00,0,0,0,0,41166,50000,2942,48810,0,0,0,0,0.00,0.00,0.00,0.00
2017-08-02 06:50:00,0,48350,0,0.00,0,0,0,0,44283,50000,1765,48616,0,0,0,0,0.00,0.00,0.00,0.00
2017-08-02 07:00:00,0,48085,0,0.00,0,0,0,0,46017,50000,1485,47979,0,0,0,0,0.00,0.00,0.00,0.00
2017-08-02 07:10:00,0,48365,0,0.00,0,0,0,0,41651,50000,2487,49318,0,0,0,0,0.00,0.00,0.00,0.00
2017-08-02 07:20:00,0,48546,0,0.00,0,0,0,0,45091,50000,1647,49180,0,0,0,0,0.00,0.00,0.00,0.00
2017-08-02 07:30:00,0,44200,39,0.57,0,0,0,0,24555,50000,8097,48369,0,52,20,51,0.00,1.55,0.47,0.45
2017-08-02 07:40:00,0,31738,57,7.39,0,0,0,0,18574,46302,9382,30474,51,62,5,61,0.10,18.20,5.69,7.65
2017-08-02 07:50:00,0,17274,62,26.92,0,0,0,0,12774,29877,4845,15532,61,63,1,62,5.55,55.65,15.07,25.20
2017-08-02 08:00:00,0,23145,38,34.44,0,0,0,0,7038,40913,13418,23449,0,63,31,62,0.00,96.00,39.05,14.65
2017-08-02 08:10:00,0,45878,61,0.33,0,0,0,0,41332,50000,3074,45698,61,61,0,61,0.00,1.45,0.44,0.12
2017-08-02 08:20:00,0,47649,20,0.03,0,0,0,0,39371,50000,3928,50000,0,51,25,0,0.00,0.20,0.06,0.00
2017-08-02 08:30:00,0,39816,38,0.16,0,0,0,0,32741,49983,5212,39598,0,61,25,51,0.00,0.65,0.22,0.05
2017-08-02 08:40:00,0,44968,52,0.15,0,0,0,0,33708,50000,5884,47802,41,61,9,56,0.00,0.55,0.19,0.08
2017-08-02 08:50:00,0,38446,12,0.01,0,0,0,0,29008,48123,5549,39238,0,41,19,0,0.00,0.10,0.03,0.00
2017-08-02 09:00:00,0,39114,0,0.00,0,0,0,0,32384,46069,4116,38306,0,0,0,0,0.00,0.00,0.00,0.00
2017-08-02 09:10:00,0,43214,0,0.00,0,0,0,0,37097,46968,3137,43906,0,0,0,0,0.00,0.00,0.00,0.00
2017-08-02 09:20:00,0,41489,0,0.00,0,0,0,0,29995,47938,6215,43371,0,0,0,0,0.00,0.00,0.00,0.00
2017-08-02 09:30:00,0,43889,0,0.00,0,0,0,0,36293,50000,4145,44016,0,0,0,0,0.00,0.00,0.00,0.00
2017-08-02 09:40:00,0,43844,0,0.00,0,0,0,0,34694,50000,5499,43972,0,0,0,0,0.00,0.00,0.00,0.00
2017-08-02 09:50:00,0,44664,0,0.00,0,0,0,0,41924,48191,2235,44201,0,0,0,0,0.00,0.00,0.00,0.00
2017-08-02 10:00:00,0,41659,0,0.00,0,0,0,0,35911,47836,3370,40668,0,0,0,0,0.00,0.00,0.00,0.00
2017-08-02 10:10:00,0,46221,0,0.00,0,0,0,0,41099,50000,3691,47342,0,0,0,0,0.00,0.00,0.00,0.00
2017-08-02 10:20:00,0,46880,0,0.00,0,0,0,0,42069,50000,2800,47720,0,0,0,0,0.00,0.00,0.00,0.00
2017-08-02 10:30:00,0,47626,0,0.00,0,0,0,0,43417,50000,2067,48108,0,0,0,0,0.00,0.00,0.00,0.00
2017-08-02 10:40:00,0,48699,0,0.00,0,0,0,0,42471,50000,2330,50000,0,0,0,0,0.00,0.00,0.00,0.00
2017-08-02 10:50:00,0,49591,0,0.00,0,0,0,0,48190,50000,695,50000,0,0,0,0,0.00,0.00,0.00,0.00
2017-08-02 11:00:00,0,49390,0,0.00,0,0,0,0,46323,50000,1131,50000,0,0,0,0,0.00,0.00,0.00,0.00
2017-08-02 11:10:00,0,48841,0,0.00,0,0,0,0,45465,50000,1689,50000,0,0,0,0,0.00,0.00,0.00,0.00
2017-08-02 11:20:00,0,41149,24,0.57,0,0,0,0,24399,50000,8085,42716,0,61,30,0,0.00,3.25,0.99,0.00
2017-08-02 11:30:00,0,14738,62,9.85,0,0,0,0,9168,39401,8522,11616,61,62,0,62,1.05,18.00,5.44,9.35
2017-08-02 11:40:00,0,8168,62,48.92,0,0,0,0,7082,10561,1126,7754,61,63,1,63,5.00,91.15,28.60,53.65
2017-08-02 11:50:00,0,7273,62,32.64,0,0,0,0,6713,7637,267,7325,62,63,0,62,20.15,44.10,6.70,32.92
2017-08-02 12:00:00,0,10106,62,13.14,0,0,0,0,8304,13764,1698,9613,61,62,0,62,5.05,22.65,5.76,11.70
2017-08-02 12:10:00,0,25612,61,2.34,0,0,0,0,15859,39890,7576,24910,61,61,0,61,1.00,4.40,1.13,2.00
2017-08-02 12:20:00,0,20197,61,4.12,0,0,0,0,14620,34793,6722,16640,61,62,0,61,0.00,11.40,3.74,2.92
2017-08-02 12:30:00,0,48298,0,0.00,0,0,0,0,43024,50000,2418,49802,0,0,0,0,0.00,0.00,0.00,0.00
2017-08-02 12:40:00,0,45682,0,0.00,0,0,0,0,41343,50000,3091,46088,0,0,0,0,0.00,0.00,0.00,0.00
2017-08-02 12:50:00,0,48872,0,0.00,0,0,0,0,45025,50000,1780,49986,0,0,0,0,0.00,0.00,0.00,0.00
2017-08-02 13:00:00,0,49267,0,0.00,0,0,0,0,47297,50000,980,50000,0,0,0,0,0.00,0.00,0.00,0.00
2017-08-02 13:10:00,0,49692,0,0.00,0,0,0,0,48465,50000,504,50000,0,0,0,0,0.00,0.00,0.00,0.00
2017-08-02 13:20:00,0,49810,0,0.00,0,0,0,0,48535,50000,445,50000,0,0,0,0,0.00,0.00,0.00,0.00
2017-08-02 13:30:00,0,49956,0,0.00,0,0,0,0,49555,50000,134,50000,0,0,0,0,0.00,0.00,0.00,0.00
2017-08-02 13:40:00,0,49926,0,0.00,0,0,0,0,49264,50000,221,50000,0,0,0,0,0.00,0.00,0.00,0.00
2017-08-02 13:50:00,0,48753,0,0.00,0,0,0,0,44520,50000,2069,49994,0,0,0,0,0.00,0.00,0.00,0.00
2017-08-02 14:00:00,0,26134,37,2.51,0,0,0,0,14113,50000,14089,17578,0,61,30,61,0.00,6.30,2.31,2.80
2017-08-02 14:10:00,0,13719,61,4.32,0,0,0,0,9280,17167,2450,14070,61,62,0,61,0.50,25.15,7.13,1.67
2017-08-02 14:20:00,0,12524,61,10.72,0,0,0,0,9580,18895,3059,10970,61,62,0,61,1.05,26.70,8.55,6.70
2017-08-02 14:30:00,0,30564,60,1.19,0,0,0,0,15102,50000,13128,26335,51,61,3,61,0.00,6.35,1.83,0.48
2017-08-02 14:40:00,0,48424,5,0.00,0,0,0,0,43414,50000,2473,50000,0,51,15,0,0.00,0.00,0.00,0.00
2017-08-02 14:50:00,0,49455,0,0.00,0,0,0,0,47797,50000,804,50000,0,0,0,0,0.00,0.00,0.00,0.00
2017-08-02 15:00:00,0,49899,0,0.00,0,0,0,0,49018,50000,294,50000,0,0,0,0,0.00,0.00,0.00,0.00
2017-08-02 15:10:00,0,49401,0,0.00,0,0,0,0,47536,50000,888,50000,0,0,0,0,0.00,0.00,0.00,0.00
2017-08-02 15:20:00,0,50000,0,0.00,0,0,0,0,50000,50000,0,50000,0,0,0,0,0.00,0.00,0.00,0.00
2017-08-02 15:30:00,0,46662,12,0.07,0,0,0,0,41140,50000,3668,48708,0,61,24,0,0.00,0.50,0.16,0.00
2017-08-02 15:40:00,0,46506,43,0.14,0,0,0,0,34193,50000,5758,50000,0,61,22,51,0.00,0.55,0.20,0.03
2017-08-02 15:50:00,0,27968,37,10.97,0,0,0,0,7894,50000,19789,23222,0,62,30,62,0.00,25.30,11.19,8.07
2017-08-02 16:00:00,0,9734,62,24.40,0,0,0,0,5789,15722,2747,9351,61,63,1,62,4.85,70.20,19.30,19.65
2017-08-02 16:10:00,0,25812,55,13.34,0,0,0,0,7945,50000,16585,20986,0,62,18,62,0.00,38.90,14.71,7.65
2017-08-02 16:20:00,0,50000,0,0.00,0,0,0,0,50000,50000,0,50000,0,0,0,0,0.00,0.00,0.00,0.00
2017-08-02 16:30:00,0,49581,0,0.00,0,0,0,0,45814,50000,1256,50000,0,0,0,0,0.00,0.00,0.00,0.00
2017-08-02 16:40:00,0,49703,0,0.00,0,0,0,0,48422,50000,545,50000,0,0,0,0,0.00,0.00,0.00,0.00
2017-08-02 16:50:00,0,50000,0,0.00,0,0,0,0,50000,50000,0,50000,0,0,0,0,0.00,0.00,0.00,0.00
2017-08-02 17:00:00,0,50000,0,0.00,0,0,0,0,50000,50000,0,50000,0,0,0,0,0.00,0.00,0.00,0.00
2017-08-02 17:10:00,0,45730,12,0.01,0,0,0,0,36797,50000,4246,46084,0,61,24,0,0.00,0.10,0.03,0.00
2017-08-02 17:20:00,0,45484,56,0.65,0,0,0,0,37124,50000,3701,46882,51,61,5,56,0.05,1.85,0.58,0.45
2017-08-02 17:30:00,0,34089,59,2.11,0,0,0,0,25923,39724,4427,36027,52,61,4,61,0.90,4.90,1.23,1.93
2017-08-02 17:40:00,0,40588,61,1.06,0,0,0,0,30901,49801,6943,41800,61,61,0,61,0.00,2.55,0.81,0.88
2017-08-02 17:50:00,0,37741,61,0.78,0,0,0,0,27538,50000,6567,36244,61,61,0,61,0.20,2.95,0.82,0.45
2017-08-02 18:00:00,0,38381,59,0.89,0,0,0,0,30497,47520,4984,38404,51,61,4,61,0.00,1.65,0.49,0.80
2017-08-02 18:10:00,0,47639,39,0.05,0,0,0,0,41415,50000,2911,49184,0,61,26,51,0.00,0.35,0.10,0.00
2017-08-02 18:20:00,0,49946,0,0.00,0,0,0,0,49460,50000,162,50000,0,0,0,0,0.00,0.00,0.00,0.00
2017-08-02 18:30:00,0,49920,0,0.00,0,0,0,0,49203,50000,239,50000,0,0,0,0,0.00,0.00,0.00,0.00
2017-08-02 18:40:00,0,49582,0,0.00,0,0,0,0,46713,50000,972,50000,0,0,0,0,0.00,0.00,0.00,0.00
2017-08-02 18:50:00,0,45261,0,0.00,0,0,0,0,34888,50000,5069,45998,0,0,0,0,0.00,0.00,0.00,0.00
2017-08-02 19:00:00,0,49682,0,0.00,0,0,0,0,48575,50000,521,50000,0,0,0,0,0.00,0.00,0.00,0.00
2017-08-02 19:10:00,0,50000,0,0.00,0,0,0,0,50000,50000,0,50000,0,0,0,0,0.00,0.00,0.00,0.00
2017-08-02 19:20:00,0,49765,0,0.00,0,0,0,0,47937,50000,615,50000,0,0,0,0,0.00,0.00,0.00,0.00
2017-08-02 19:30:00,0,49925,0,0.00,0,0,0,0,49248,50000,226,50000,0,0,0,0,0.00,0.00,0.00,0.00
2017-08-02 19:40:00,0,49770,0,0.00,0,0,0,0,48357,50000,483,50000,0,0,0,0,0.00,0.00,0.00,0.00
2017-08-02 19:50:00,0,48497,0,0.00,0,0,0,0,41437,50000,2644,50000,0,0,0,0,0.00,0.00,0.00,0.00
2017-08-02 20:00:00,0,49078,0,0.00,0,0,0,0,46585,50000,1312,49890,0,0,0,0,0.00,0.00,0.00,0.00
2017-08-02 20:10:00,0,47521,0,0.00,0,0,0,0,43870,50000,2336,48219,0,0,0,0,0.00,0.00,0.00,0.00
2017-08-02 20:20:00,0,45817,0,0.00,0,0,0,0,37953,50000,4033,46049,0,0,0,0,0.00,0.00,0.00,0.00
2017-08-02 20:30:00,0,46821,0,0.00,0,0,0,0,42656,50000,2209,46290,0,0,0,0,0.00,0.00,0.00,0.00
2017-08-02 20:40:00,0,44779,0,0.00,0,0,0,0,36239,50000,3779,45040,0,0,0,0,0.00,0.00,0.00,0.00
2017-08-02 20:50:00,0,48802,0,0.00,0,0,0,0,42693,50000,2257,50000,0,0,0,0,0.00,0.00,0.00,0.00
2017-08-02 21:00:00,0,47111,0,0.00,0,0,0,0,41876,50000,3174,48360,0,0,0,0,0.00,0.00,0.00,0.00
2017-08-02 21:10:00,0,45564,43,0.12,0,0,0,0,41422,48106,2110,46420,0,61,28,61,0.00,0.95,0.28,0.05
2017-08-02 21:20:00,0,48333,18,0.03,0,0,0,0,44527,50000,2156,49598,0,61,28,0,0.00,0.15,0.06,0.00
2017-08-02 21:30:00,0,44949,17,0.03,0,0,0,0,29202,50000,6667,47082,0,61,27,0,0.00,0.20,0.06,0.00
2017-08-02 21:40:00,0,33573,55,5.63,0,0,0,0,12690,50000,13716,34914,51,62,5,51,0.10,21.45,7.98,1.50
2017-08-02 21:50:00,0,14045,61,5.50,0,0,0,0,8734,23764,4392,12388,61,62,0,61,0.10,14.50,5.13,4.20
2017-08-02 22:00:00,0,39182,24,0.03,0,0,0,0,20879,48894,9357,42601,0,61,30,0,0.00,0.25,0.08,0.00
2017-08-02 22:10:00,0,26511,30,0.35,0,0,0,0,13715,38820,7631,28572,0,61,30,30,0.00,1.30,0.42,0.20
2017-08-02 22:20:00,0,23225,61,1.31,0,2,1,0,14096,32437,5242,22484,61,61,0,61,0.15,4.10,1.42,0.77
2017-08-02 22:30:00,0,24187,37,0.59,0,0,0,0,11304,47029,11082,20876,0,61,24,52,0.00,2.20,0.70,0.20
2017-08-02 22:40:00,0,45728,0,0.00,0,0,0,0,38208,50000,4257,47328,0,0,0,0,0.00,0.00,0.00,0.00
2017-08-02 22:50:00,0,48267,0,0.00,0,0,0,0,43297,50000,2288,49794,0,0,0,0,0.00,0.00,0.00,0.00
2017-08-02 23:00:00,0,48410,0,0.00,0,0,0,0,43615,50000,2256,49628,0,0,0,0,0.00,0.00,0.00,0.00
2017-08-02 23:10:00,1,46505,0,0.00,0,2,1,2,37864,50000,4559,49504,0,0,0,0,0.00,0.00,0.00,0.00
2017-08-02 23:20:00,1,47206,0,0.00,0,2,1,2,40086,50000,2857,47146,0,0,0,0,0.00,0.00,0.00,0.00
2017-08-02 23:30:00,2,36638,0,0.00,2,2,0,2,30156,47060,4727,35496,0,0,0,0,0.00,0.00,0.00,0.00
2017-08-02 23:40:00,2,39526,0,0.00,2,2,0,2,27405,50000,7587,39460,0,0,0,0,0.00,0.00,0.00,0.00
2017-08-02 23:50:00,2,44248,0,0.00,0,2,1,2,27140,50000,7837,49731,0,0,0,0,0.00,0.00,0.00,0.00
